TimeBST,TemperatureF,Dew PointF,Humidity,Sea Level PressureIn,VisibilityMPH,Wind Direction,Wind SpeedMPH,Gust SpeedMPH,PrecipitationIn,Events,Conditions,WindDirDegrees,DateUTC
12:20 AM,55.4,53.6,94,30.45,5.6,Calm,Calm,-,N/A,,Unknown,0,2013-07-08 23:20:00
12:50 AM,55.4,53.6,94,30.45,6.2,Calm,Calm,-,N/A,,Unknown,0,2013-07-08 23:50:00
1:20 AM,53.6,53.6,100,30.45,6.2,SW,3.5,-,N/A,,Unknown,220,2013-07-09 00:20:00
1:50 AM,57.2,57.2,100,30.45,6.2,SW,5.8,-,N/A,,Unknown,230,2013-07-09 00:50:00
2:20 AM,59.0,57.2,94,30.45,6.2,SW,5.8,-,N/A,,Unknown,220,2013-07-09 01:20:00
2:50 AM,59.0,57.2,94,30.45,6.2,SW,6.9,-,N/A,,Partly Cloudy,220,2013-07-09 01:50:00
3:20 AM,57.2,55.4,94,30.42,6.2,SW,5.8,-,N/A,,Partly Cloudy,230,2013-07-09 02:20:00
3:50 AM,57.2,55.4,94,30.42,-9999.0,WSW,4.6,-,N/A,,Clear,250,2013-07-09 02:50:00
4:20 AM,55.4,53.6,94,30.42,-9999.0,SW,5.8,-,N/A,,Clear,230,2013-07-09 03:20:00
4:50 AM,55.4,55.4,100,30.42,-9999.0,SW,8.1,-,N/A,,Clear,230,2013-07-09 03:50:00
5:20 AM,57.2,55.4,94,30.42,-9999.0,SW,8.1,-,N/A,,Clear,230,2013-07-09 04:20:00
5:50 AM,59.0,57.2,94,30.42,-9999.0,Variable,2.3,-,N/A,,Clear,0,2013-07-09 04:50:00
6:20 AM,60.8,59.0,94,30.42,-9999.0,Calm,Calm,-,N/A,,Clear,0,2013-07-09 05:20:00
6:50 AM,60.8,59.0,94,30.45,6.2,Variable,2.3,-,N/A,,Partly Cloudy,0,2013-07-09 05:50:00
7:20 AM,64.4,59.0,83,30.42,6.2,SW,9.2,-,N/A,,Scattered Clouds,230,2013-07-09 06:20:00
7:50 AM,66.2,60.8,83,30.42,6.2,SW,10.4,-,N/A,,Scattered Clouds,230,2013-07-09 06:50:00
8:20 AM,66.2,60.8,83,30.42,6.2,WSW,8.1,-,N/A,,Scattered Clouds,240,2013-07-09 07:20:00
8:50 AM,68.0,60.8,78,30.42,6.2,WSW,8.1,-,N/A,,Partly Cloudy,240,2013-07-09 07:50:00
9:20 AM,69.8,60.8,73,30.39,6.2,WSW,10.4,-,N/A,,Partly Cloudy,240,2013-07-09 08:20:00
9:50 AM,71.6,60.8,69,30.39,6.2,WSW,9.2,-,N/A,,Partly Cloudy,240,2013-07-09 08:50:00
10:20 AM,73.4,60.8,65,30.39,6.2,WSW,10.4,-,N/A,,Partly Cloudy,240,2013-07-09 09:20:00
10:50 AM,75.2,59.0,57,30.39,6.2,WSW,11.5,-,N/A,,Scattered Clouds,250,2013-07-09 09:50:00
11:20 AM,73.4,57.2,57,30.39,6.2,West,12.7,-,N/A,,Scattered Clouds,270,2013-07-09 10:20:00
11:50 AM,75.2,59.0,57,30.39,6.2,West,13.8,-,N/A,,Scattered Clouds,270,2013-07-09 10:50:00
12:20 PM,75.2,59.0,57,30.39,6.2,West,12.7,-,N/A,,Scattered Clouds,260,2013-07-09 11:20:00
12:50 PM,77.0,57.2,50,30.39,6.2,West,11.5,-,N/A,,Scattered Clouds,260,2013-07-09 11:50:00
1:20 PM,77.0,57.2,50,30.36,6.2,West,12.7,-,N/A,,Scattered Clouds,270,2013-07-09 12:20:00
1:50 PM,77.0,59.0,54,30.36,6.2,West,10.4,-,N/A,,Scattered Clouds,280,2013-07-09 12:50:00
2:20 PM,75.2,59.0,57,30.39,6.2,West,9.2,-,N/A,,Scattered Clouds,280,2013-07-09 13:20:00
2:50 PM,77.0,59.0,54,30.39,6.2,WNW,9.2,-,N/A,,Scattered Clouds,290,2013-07-09 13:50:00
3:50 PM,77.0,57.2,50,30.36,6.2,WNW,10.4,-,N/A,,Partly Cloudy,290,2013-07-09 14:50:00
4:20 PM,77.0,59.0,54,30.36,6.2,WNW,6.9,-,N/A,,Partly Cloudy,300,2013-07-09 15:20:00
4:50 PM,73.4,57.2,57,30.36,6.2,North,12.7,-,N/A,,Partly Cloudy,360,2013-07-09 15:50:00
5:20 PM,73.4,59.0,61,30.39,6.2,North,11.5,-,N/A,,Partly Cloudy,360,2013-07-09 16:20:00
5:50 PM,71.6,59.0,64,30.39,6.2,North,9.2,-,N/A,,Partly Cloudy,10,2013-07-09 16:50:00
6:20 PM,71.6,59.0,64,30.39,6.2,NNE,9.2,-,N/A,,Partly Cloudy,20,2013-07-09 17:20:00
6:50 PM,71.6,59.0,64,30.39,6.2,North,11.5,-,N/A,,Partly Cloudy,10,2013-07-09 17:50:00
7:20 PM,66.2,57.2,73,30.39,6.2,ENE,11.5,-,N/A,,Partly Cloudy,60,2013-07-09 18:20:00
7:50 PM,66.2,59.0,78,30.42,6.2,ENE,8.1,-,N/A,,Partly Cloudy,60,2013-07-09 18:50:00
8:20 PM,64.4,59.0,83,30.42,6.2,NE,6.9,-,N/A,,Partly Cloudy,40,2013-07-09 19:20:00
8:50 PM,62.6,57.2,82,30.42,6.2,ENE,8.1,-,N/A,,Partly Cloudy,60,2013-07-09 19:50:00
9:20 PM,60.8,55.4,82,30.42,6.2,ENE,9.2,-,N/A,,Scattered Clouds,60,2013-07-09 20:20:00
9:50 PM,59.0,55.4,88,30.42,6.2,ENE,8.1,-,N/A,,Mostly Cloudy,60,2013-07-09 20:50:00